Dades meteomassalio
Diari Summary for Juliol 30, 2017 Units:  Metric    English   Both
« Previous Day
Next Day »
Diari Semanal Mensual Anual Personalitzat
  Maxima: Minima: Mijana:
Temperatura: 36.9 °C 19.8 °C 28.4 °C
Rosada: 21.6 °C 15.4 °C 18.9 °C
Humitat: 88 % 31 % 60 %
Velocitat del vent: 38.9 km/h 0.0 km/h 6.8 km/h
Racha vent: 38.9 km/h - -
Vent:- - ESE
Pressio: 1011.7 hPa 1007.0 hPa -
Pluja: 0.0 mm    
Historical Graphs
 
 
Tabular Data for Juliol 30, 2017
Time Temperature Dew Point Pressure Wind Wind Speed Wind Gust Humidity Rainfall Rate (Hourly) solar Conditions
00:01 26.2 °C 20.9 °C 1011.7 hPa Calm     73 % 0.0 mm 0.0 W/m2 CLR
00:06 26.2 °C 20.9 °C 1011.7 hPa Calm     73 % 0.0 mm 0.0 W/m2 CLR
00:11 26.1 °C 20.9 °C 1011.7 hPa East 5.6 km/h 5.6 km/h 73 % 0.0 mm 0.0 W/m2 CLR
00:16 26.1 °C 20.8 °C 1011.7 hPa Calm     73 % 0.0 mm 0.0 W/m2 CLR
00:21 26.0 °C 21.0 °C 1011.7 hPa SE 4.8 km/h 4.8 km/h 74 % 0.0 mm 0.0 W/m2 CLR
00:26 25.9 °C 20.9 °C 1011.7 hPa Calm     74 % 0.0 mm 0.0 W/m2 CLR
00:31 25.9 °C 20.9 °C 1011.7 hPa Calm     74 % 0.0 mm 0.0 W/m2 CLR
00:36 25.6 °C 20.8 °C 1011.7 hPa Calm     75 % 0.0 mm 0.0 W/m2 CLR
00:41 25.4 °C 20.8 °C 1011.7 hPa Calm     76 % 0.0 mm 0.0 W/m2 CLR
00:46 25.3 °C 20.8 °C 1011.7 hPa Calm     76 % 0.0 mm 0.0 W/m2 CLR
00:51 25.3 °C 20.8 °C 1011.7 hPa Calm     76 % 0.0 mm 0.0 W/m2 CLR
00:56 25.2 °C 20.7 °C 1011.7 hPa Calm     76 % 0.0 mm 0.0 W/m2 CLR
01:01 25.1 °C 20.6 °C 1011.7 hPa Calm     76 % 0.0 mm 0.0 W/m2 CLR
01:06 25.1 °C 20.7 °C 1011.7 hPa Calm     77 % 0.0 mm 0.0 W/m2 CLR
01:11 25.0 °C 20.7 °C 1011.7 hPa Calm     77 % 0.0 mm 0.0 W/m2 CLR
01:16 24.8 °C 20.5 °C 1011.7 hPa Calm     77 % 0.0 mm 0.0 W/m2 CLR
01:21 24.7 °C 20.6 °C 1011.7 hPa Calm     78 % 0.0 mm 0.0 W/m2 CLR
01:26 24.6 °C 20.4 °C 1011.7 hPa Calm     78 % 0.0 mm 0.0 W/m2 CLR
01:31 24.6 °C 20.4 °C 1011.7 hPa Calm     78 % 0.0 mm 0.0 W/m2 CLR
01:36 24.4 °C 20.3 °C 1011.4 hPa Calm     78 % 0.0 mm 0.0 W/m2 CLR
01:46 24.2 °C 20.3 °C 1011.4 hPa Calm     79 % 0.0 mm 0.0 W/m2 CLR
01:51 24.1 °C 20.4 °C 1011.4 hPa Calm     80 % 0.0 mm 0.0 W/m2 CLR
01:56 24.0 °C 20.1 °C 1011.4 hPa Calm     79 % 0.0 mm 0.0 W/m2 CLR
02:01 23.9 °C 20.2 °C 1011.4 hPa Calm     80 % 0.0 mm 0.0 W/m2 CLR
02:06 23.8 °C 20.2 °C 1011.4 hPa Calm     80 % 0.0 mm 0.0 W/m2 CLR
02:11 23.7 °C 20.1 °C 1011.4 hPa Calm     80 % 0.0 mm 0.0 W/m2 CLR
02:16 23.6 °C 20.2 °C 1011.4 hPa Calm     81 % 0.0 mm 0.0 W/m2 CLR
02:21 23.5 °C 20.1 °C 1011.4 hPa Calm     81 % 0.0 mm 0.0 W/m2 CLR
02:27 23.4 °C 20.2 °C 1011.4 hPa Calm     82 % 0.0 mm 0.0 W/m2 CLR
02:32 23.3 °C 20.1 °C 1011.4 hPa Calm     82 % 0.0 mm 0.0 W/m2 CLR
02:37 23.3 °C 20.1 °C 1011.4 hPa Calm     82 % 0.0 mm 0.0 W/m2 CLR
02:42 23.2 °C 19.9 °C 1011.4 hPa Calm     82 % 0.0 mm 0.0 W/m2 CLR
02:47 23.1 °C 19.9 °C 1011.4 hPa Calm     82 % 0.0 mm 0.0 W/m2 CLR
02:52 23.1 °C 20.0 °C 1011.4 hPa Calm     83 % 0.0 mm 0.0 W/m2 CLR
02:57 23.0 °C 19.9 °C 1011.1 hPa Calm     83 % 0.0 mm 0.0 W/m2 CLR
03:02 22.9 °C 19.8 °C 1011.1 hPa Calm     83 % 0.0 mm 0.0 W/m2 CLR
03:07 22.9 °C 20.1 °C 1011.1 hPa Calm     84 % 0.0 mm 0.0 W/m2 CLR
03:12 22.9 °C 19.8 °C 1011.1 hPa Calm     83 % 0.0 mm 0.0 W/m2 CLR
03:22 22.7 °C 19.5 °C 1011.1 hPa Calm     82 % 0.0 mm 0.0 W/m2 CLR
03:27 22.6 °C 19.5 °C 1011.1 hPa Calm     83 % 0.0 mm 0.0 W/m2 CLR
03:32 22.4 °C 19.2 °C 1011.1 hPa Calm     82 % 0.0 mm 0.0 W/m2 CLR
03:37 22.2 °C 19.0 °C 1011.1 hPa Calm     82 % 0.0 mm 0.0 W/m2 CLR
03:42 22.1 °C 19.1 °C 1011.1 hPa Calm     83 % 0.0 mm 0.0 W/m2 CLR
03:47 22.0 °C 19.2 °C 1011.1 hPa Calm     84 % 0.0 mm 0.0 W/m2 CLR
03:52 21.9 °C 19.1 °C 1011.1 hPa Calm     84 % 0.0 mm 0.0 W/m2 CLR
03:57 21.9 °C 18.9 °C 1011.1 hPa Calm     83 % 0.0 mm 0.0 W/m2 CLR
04:02 21.8 °C 18.8 °C 1011.1 hPa Calm     83 % 0.0 mm 0.0 W/m2 CLR
04:07 21.7 °C 18.9 °C 1011.4 hPa Calm     84 % 0.0 mm 0.0 W/m2 CLR
04:12 21.7 °C 18.8 °C 1011.4 hPa Calm     84 % 0.0 mm 0.0 W/m2 CLR
04:17 21.6 °C 18.8 °C 1011.4 hPa Calm     84 % 0.0 mm 0.0 W/m2 CLR
04:22 21.6 °C 18.9 °C 1011.1 hPa Calm     85 % 0.0 mm 0.0 W/m2 CLR
04:27 21.5 °C 18.9 °C 1011.1 hPa Calm     85 % 0.0 mm 0.0 W/m2 CLR
04:32 21.5 °C 18.9 °C 1011.1 hPa Calm     85 % 0.0 mm 0.0 W/m2 CLR
04:37 21.5 °C 18.9 °C 1011.1 hPa Calm     85 % 0.0 mm 0.0 W/m2 CLR
04:38 21.5 °C 18.9 °C 1011.4 hPa Calm     85 % 0.0 mm 0.0 W/m2 CLR
04:43 21.5 °C 19.1 °C 1011.4 hPa Calm     86 % 0.0 mm 0.0 W/m2 CLR
04:48 21.4 °C 18.8 °C 1011.4 hPa Calm     85 % 0.0 mm 0.0 W/m2 CLR
04:53 21.4 °C 18.8 °C 1011.4 hPa Calm     85 % 0.0 mm 0.0 W/m2 CLR
04:58 21.3 °C 18.7 °C 1011.4 hPa Calm     85 % 0.0 mm 0.0 W/m2 CLR
05:03 21.2 °C 18.6 °C 1011.4 hPa Calm     85 % 0.0 mm 0.0 W/m2 CLR
05:08 21.1 °C 18.7 °C 1011.4 hPa Calm     86 % 0.0 mm 0.0 W/m2 CLR
05:13 21.1 °C 18.7 °C 1011.1 hPa Calm     86 % 0.0 mm 0.0 W/m2 CLR
05:18 21.1 °C 18.6 °C 1011.4 hPa Calm     86 % 0.0 mm 0.0 W/m2 CLR
05:23 21.0 °C 18.6 °C 1011.4 hPa Calm     86 % 0.0 mm 0.0 W/m2 CLR
05:28 20.9 °C 18.4 °C 1011.4 hPa Calm     86 % 0.0 mm 0.0 W/m2 CLR
05:33 20.7 °C 18.3 °C 1011.1 hPa Calm     86 % 0.0 mm 0.0 W/m2 CLR
05:38 20.6 °C 18.2 °C 1011.4 hPa Calm     86 % 0.0 mm 0.0 W/m2 CLR
05:48 20.5 °C 18.3 °C 1011.4 hPa Calm     87 % 0.0 mm 0.0 W/m2 CLR
05:53 20.5 °C 18.3 °C 1011.4 hPa Calm     87 % 0.0 mm 0.0 W/m2 CLR
05:58 20.4 °C 18.2 °C 1011.4 hPa Calm     87 % 0.0 mm 0.0 W/m2 CLR
06:03 20.4 °C 18.2 °C 1011.1 hPa Calm     87 % 0.0 mm 0.0 W/m2 CLR
06:08 20.3 °C 18.1 °C 1011.4 hPa Calm     87 % 0.0 mm 0.0 W/m2 CLR
06:13 20.2 °C 18.0 °C 1011.4 hPa Calm     87 % 0.0 mm 0.0 W/m2 CLR
06:18 20.2 °C 18.2 °C 1011.4 hPa Calm     88 % 0.0 mm 0.0 W/m2 CLR
06:23 20.2 °C 18.0 °C 1011.4 hPa Calm     87 % 0.0 mm 0.0 W/m2 CLR
06:28 20.2 °C 17.9 °C 1011.4 hPa Calm     87 % 0.0 mm 0.0 W/m2 CLR
06:33 20.1 °C 18.1 °C 1011.1 hPa Calm     88 % 0.0 mm 0.0 W/m2 CLR
06:38 20.0 °C 17.9 °C 1011.1 hPa Calm     88 % 0.0 mm 0.0 W/m2 CLR
06:43 20.0 °C 17.8 °C 1011.1 hPa Calm     87 % 0.0 mm 0.0 W/m2 OVC
06:48 19.9 °C 17.9 °C 1011.4 hPa Calm     88 % 0.0 mm 0.0 W/m2 OVC
06:58 19.9 °C 17.7 °C 1011.1 hPa Calm     87 % 0.0 mm 5.0 W/m2 OVC
07:03 19.8 °C 17.6 °C 1011.4 hPa Calm     87 % 0.0 mm 9.0 W/m2 BKN
07:08 19.8 °C 17.6 °C 1011.4 hPa Calm     87 % 0.0 mm 12.0 W/m2 BKN
07:13 19.8 °C 17.7 °C 1011.4 hPa Calm     88 % 0.0 mm 18.0 W/m2 BKN
07:18 19.8 °C 17.7 °C 1011.4 hPa Calm     88 % 0.0 mm 21.0 W/m2 BKN
07:24 19.8 °C 17.7 °C 1011.4 hPa Calm     88 % 0.0 mm 26.0 W/m2 BKN
07:29 19.8 °C 17.7 °C 1011.4 hPa Calm     88 % 0.0 mm 33.0 W/m2 BKN
07:34 19.8 °C 17.6 °C 1011.4 hPa Calm     87 % 0.0 mm 40.0 W/m2 BKN
07:39 19.8 °C 17.8 °C 1011.4 hPa Calm     88 % 0.0 mm 49.0 W/m2 BKN
07:44 19.9 °C 17.7 °C 1011.4 hPa Calm     87 % 0.0 mm 60.0 W/m2 SCT
07:49 20.1 °C 17.8 °C 1011.4 hPa Calm     87 % 0.0 mm 70.0 W/m2 FEW
07:54 20.2 °C 18.0 °C 1011.4 hPa Calm     87 % 0.0 mm 81.0 W/m2 FEW
07:59 20.4 °C 18.2 °C 1011.7 hPa Calm     87 % 0.0 mm 91.0 W/m2 FEW
08:04 20.6 °C 18.2 °C 1011.7 hPa Calm     86 % 0.0 mm 104.0 W/m2 CLR
08:09 20.8 °C 18.2 °C 1011.7 hPa Calm     85 % 0.0 mm 120.0 W/m2 CLR
08:14 20.9 °C 18.1 °C 1011.7 hPa Calm     84 % 0.0 mm 135.0 W/m2 CLR
08:19 21.1 °C 18.3 °C 1011.4 hPa Calm     84 % 0.0 mm 149.0 W/m2 CLR
08:24 21.4 °C 18.4 °C 1011.4 hPa Calm     83 % 0.0 mm 165.0 W/m2 CLR
08:29 21.8 °C 18.6 °C 1011.7 hPa Calm     82 % 0.0 mm 181.0 W/m2 CLR
08:34 22.3 °C 18.7 °C 1011.7 hPa Calm     80 % 0.0 mm 199.0 W/m2 CLR
08:39 22.8 °C 18.8 °C 1011.7 hPa Calm     78 % 0.0 mm 216.0 W/m2 CLR
08:44 23.3 °C 18.8 °C 1011.7 hPa Calm     76 % 0.0 mm 230.0 W/m2 CLR
08:49 23.6 °C 18.7 °C 1011.7 hPa Calm     74 % 0.0 mm 246.0 W/m2 CLR
08:54 23.9 °C 18.8 °C 1011.7 hPa Calm     73 % 0.0 mm 262.0 W/m2 CLR
08:59 24.3 °C 18.7 °C 1011.7 hPa Calm     71 % 0.0 mm 278.0 W/m2 CLR
09:04 24.7 °C 18.9 °C 1011.7 hPa Calm     70 % 0.0 mm 294.0 W/m2 CLR
09:09 25.2 °C 19.1 °C 1011.7 hPa Calm     69 % 0.0 mm 308.0 W/m2 CLR
09:14 25.5 °C 18.9 °C 1011.7 hPa Calm     67 % 0.0 mm 327.0 W/m2 CLR
09:19 25.4 °C 18.6 °C 1011.7 hPa Calm     66 % 0.0 mm 341.0 W/m2 CLR
09:24 25.5 °C 19.2 °C 1011.7 hPa Calm     68 % 0.0 mm 357.0 W/m2 CLR
09:29 25.9 °C 19.6 °C 1011.7 hPa Calm     68 % 0.0 mm 371.0 W/m2 CLR
09:34 26.2 °C 19.4 °C 1011.7 hPa Calm     66 % 0.0 mm 390.0 W/m2 CLR
09:39 26.5 °C 19.6 °C 1011.7 hPa Calm     66 % 0.0 mm 403.0 W/m2 CLR
09:44 26.8 °C 19.7 °C 1011.7 hPa Calm     65 % 0.0 mm 417.0 W/m2 CLR
09:49 27.2 °C 19.8 °C 1011.7 hPa Calm     64 % 0.0 mm 285.0 W/m2 CLR
09:59 27.6 °C 19.9 °C 1011.7 hPa ENE 4.8 km/h 4.8 km/h 63 % 0.0 mm 464.0 W/m2 CLR
10:04 27.6 °C 19.7 °C 1011.7 hPa ENE 1.9 km/h   62 % 0.0 mm 478.0 W/m2 CLR
10:09 27.6 °C 19.9 °C 1011.7 hPa Calm     63 % 0.0 mm 492.0 W/m2 CLR
10:14 27.9 °C 20.2 °C 1011.7 hPa ENE 1.9 km/h   63 % 0.0 mm 506.0 W/m2 CLR
10:19 28.1 °C 20.4 °C 1011.7 hPa NE 1.9 km/h   63 % 0.0 mm 522.0 W/m2 CLR
10:24 28.3 °C 20.6 °C 1011.7 hPa Calm     63 % 0.0 mm 538.0 W/m2 CLR
10:29 28.4 °C 20.7 °C 1011.7 hPa Calm     63 % 0.0 mm 554.0 W/m2 CLR
10:34 28.6 °C 20.9 °C 1011.7 hPa ENE 1.9 km/h 1.9 km/h 63 % 0.0 mm 568.0 W/m2 CLR
10:39 28.6 °C 20.9 °C 1011.7 hPa Calm     63 % 0.0 mm 582.0 W/m2 CLR
10:40 28.7 °C 20.9 °C 1011.7 hPa Calm     63 % 0.0 mm 582.0 W/m2 CLR
10:50 29.3 °C 21.2 °C 1011.7 hPa ESE 1.9 km/h   62 % 0.0 mm 608.0 W/m2 CLR
10:55 29.7 °C 21.3 °C 1011.7 hPa Calm     61 % 0.0 mm 624.0 W/m2 CLR
11:00 29.9 °C 21.6 °C 1011.7 hPa ENE 1.6 km/h   61 % 0.0 mm 636.0 W/m2 CLR
11:05 30.2 °C 21.6 °C 1011.7 hPa East 3.7 km/h 3.7 km/h 60 % 0.0 mm 649.0 W/m2 CLR
11:10 30.2 °C 21.3 °C 1011.7 hPa Calm     59 % 0.0 mm 663.0 W/m2 CLR
11:15 30.1 °C 21.2 °C 1011.4 hPa ENE 1.9 km/h 1.9 km/h 59 % 0.0 mm 673.0 W/m2 CLR
11:20 30.4 °C 21.6 °C 1011.4 hPa ENE 4.8 km/h 4.8 km/h 59 % 0.0 mm 686.0 W/m2 CLR
11:25 30.9 °C 21.4 °C 1011.4 hPa ESE 3.2 km/h 3.2 km/h 57 % 0.0 mm 696.0 W/m2 CLR
11:30 31.2 °C 21.4 °C 1011.4 hPa ENE 5.6 km/h 5.6 km/h 56 % 0.0 mm 710.0 W/m2 CLR
11:35 31.3 °C 20.9 °C 1011.4 hPa ENE 3.7 km/h 3.7 km/h 54 % 0.0 mm 719.0 W/m2 CLR
11:40 31.4 °C 20.7 °C 1011.4 hPa ENE 5.6 km/h 5.6 km/h 53 % 0.0 mm 735.0 W/m2 CLR
11:45 31.5 °C 20.4 °C 1011.4 hPa ESE 1.9 km/h   52 % 0.0 mm 742.0 W/m2 CLR
11:50 31.6 °C 19.9 °C 1011.4 hPa ESE 1.9 km/h 1.9 km/h 50 % 0.0 mm 756.0 W/m2 CLR
11:55 31.9 °C 20.5 °C 1011.1 hPa Calm     51 % 0.0 mm 763.0 W/m2 CLR
12:00 32.3 °C 20.6 °C 1011.4 hPa NNE 4.8 km/h 4.8 km/h 50 % 0.0 mm 768.0 W/m2 CLR
12:05 32.3 °C 20.3 °C 1011.4 hPa Calm     49 % 0.0 mm 782.0 W/m2 CLR
12:10 32.4 °C 20.0 °C 1011.1 hPa Calm     48 % 0.0 mm 788.0 W/m2 CLR
12:15 32.8 °C 20.4 °C 1011.1 hPa NE 11.3 km/h 11.3 km/h 48 % 0.0 mm 796.0 W/m2 CLR
12:20 32.8 °C 20.4 °C 1011.1 hPa ENE 5.6 km/h 5.6 km/h 48 % 0.0 mm 803.0 W/m2 CLR
12:21 32.8 °C 20.3 °C 1011.1 hPa East 5.6 km/h 5.6 km/h 48 % 0.0 mm 807.0 W/m2 CLR
12:26 32.8 °C 20.0 °C 1011.1 hPa ENE 9.7 km/h 9.7 km/h 47 % 0.0 mm 814.0 W/m2 CLR
12:31 32.8 °C 20.0 °C 1011.1 hPa ENE 7.4 km/h 7.4 km/h 47 % 0.0 mm 823.0 W/m2 CLR
12:36 32.7 °C 19.6 °C 1011.1 hPa ESE 8.0 km/h 8.0 km/h 46 % 0.0 mm 830.0 W/m2 CLR
12:42 33.1 °C 19.2 °C 1011.1 hPa ENE 5.6 km/h   44 % 0.0 mm 838.0 W/m2 CLR
12:47 33.7 °C 18.2 °C 1011.1 hPa ENE 11.1 km/h 11.1 km/h 40 % 0.0 mm 761.0 W/m2 CLR
12:52 33.8 °C 17.5 °C 1011.1 hPa East 11.1 km/h 11.1 km/h 38 % 0.0 mm 854.0 W/m2 CLR
12:57 33.9 °C 18.8 °C 1010.7 hPa ENE 13.0 km/h 13.0 km/h 41 % 0.0 mm 858.0 W/m2 CLR
13:02 34.0 °C 18.1 °C 1010.7 hPa East 9.3 km/h 9.3 km/h 39 % 0.0 mm 863.0 W/m2 CLR
13:07 33.8 °C 17.9 °C 1010.7 hPa NE 12.9 km/h 12.9 km/h 39 % 0.0 mm 870.0 W/m2 CLR
13:12 34.0 °C 16.8 °C 1010.7 hPa ENE 9.3 km/h 9.3 km/h 36 % 0.0 mm 881.0 W/m2 CLR
13:17 34.1 °C 16.9 °C 1010.7 hPa ENE 7.4 km/h 7.4 km/h 36 % 0.0 mm 877.0 W/m2 CLR
13:22 34.2 °C 16.1 °C 1010.4 hPa NE 5.6 km/h 5.6 km/h 34 % 0.0 mm 882.0 W/m2 CLR
13:27 34.3 °C 16.7 °C 1010.4 hPa SW 3.7 km/h 3.7 km/h 35 % 0.0 mm 886.0 W/m2 CLR
13:32 34.6 °C 17.3 °C 1010.4 hPa ENE 1.9 km/h 1.9 km/h 36 % 0.0 mm 886.0 W/m2 CLR
13:37 34.9 °C 17.2 °C 1010.4 hPa ENE 3.7 km/h 3.7 km/h 35 % 0.0 mm 893.0 W/m2 CLR
13:42 34.9 °C 17.2 °C 1010.4 hPa East 9.3 km/h 9.3 km/h 35 % 0.0 mm 895.0 W/m2 CLR
13:47 34.7 °C 17.0 °C 1010.0 hPa Calm     35 % 0.0 mm 884.0 W/m2 CLR
13:48 34.8 °C 16.6 °C 1010.0 hPa Calm     34 % 0.0 mm 895.0 W/m2 CLR
13:53 34.9 °C 17.2 °C 1010.0 hPa NNE 6.4 km/h 6.4 km/h 35 % 0.0 mm 895.0 W/m2 CLR
13:58 35.3 °C 17.6 °C 1010.0 hPa NE 11.1 km/h 11.1 km/h 35 % 0.0 mm 888.0 W/m2 CLR
14:03 35.6 °C 17.3 °C 1010.0 hPa ESE 1.6 km/h 1.6 km/h 34 % 0.0 mm 891.0 W/m2 CLR
14:08 35.8 °C 17.1 °C 1009.7 hPa ENE 7.4 km/h 7.4 km/h 33 % 0.0 mm 893.0 W/m2 CLR
14:13 35.9 °C 16.6 °C 1009.7 hPa East 8.0 km/h 8.0 km/h 32 % 0.0 mm 791.0 W/m2 CLR
14:18 35.9 °C 16.6 °C 1009.7 hPa ESE 14.8 km/h 14.8 km/h 32 % 0.0 mm 875.0 W/m2 CLR
14:23 36.1 °C 16.3 °C 1009.7 hPa East 16.1 km/h 16.1 km/h 31 % 0.0 mm 893.0 W/m2 CLR
14:28 35.8 °C 16.5 °C 1009.7 hPa East 8.0 km/h 8.0 km/h 32 % 0.0 mm 889.0 W/m2 CLR
14:33 36.1 °C 17.2 °C 1009.4 hPa East 11.1 km/h 11.1 km/h 33 % 0.0 mm 889.0 W/m2 CLR
14:38 36.2 °C 17.8 °C 1009.4 hPa ESE 16.1 km/h 16.1 km/h 34 % 0.0 mm 881.0 W/m2 CLR
14:43 36.0 °C 17.7 °C 1009.4 hPa ESE 13.0 km/h 13.0 km/h 34 % 0.0 mm 884.0 W/m2 CLR
14:48 36.6 °C 17.7 °C 1009.4 hPa ESE 13.0 km/h 13.0 km/h 33 % 0.0 mm 879.0 W/m2 CLR
14:53 36.5 °C 18.6 °C 1009.4 hPa SE 20.4 km/h 20.4 km/h 35 % 0.0 mm 874.0 W/m2 CLR
14:59 35.9 °C 18.1 °C 1009.4 hPa SE 13.0 km/h 13.0 km/h 35 % 0.0 mm 870.0 W/m2 CLR
15:04 36.0 °C 17.7 °C 1009.0 hPa ESE 19.3 km/h 19.3 km/h 34 % 0.0 mm 868.0 W/m2 CLR
15:09 36.1 °C 18.2 °C 1009.0 hPa ESE 24.1 km/h 24.1 km/h 35 % 0.0 mm 863.0 W/m2 CLR
15:14 36.2 °C 17.9 °C 1009.0 hPa ESE 16.7 km/h 16.7 km/h 34 % 0.0 mm 858.0 W/m2 CLR
15:19 36.4 °C 18.0 °C 1008.7 hPa SE 14.8 km/h 14.8 km/h 34 % 0.0 mm 851.0 W/m2 CLR
15:24 36.4 °C 18.5 °C 1008.7 hPa SE 18.5 km/h 18.5 km/h 35 % 0.0 mm 853.0 W/m2 CLR
15:29 36.5 °C 18.6 °C 1008.7 hPa East 13.0 km/h 13.0 km/h 35 % 0.0 mm 847.0 W/m2 CLR
15:34 36.7 °C 17.3 °C 1008.7 hPa SE 16.7 km/h 16.7 km/h 32 % 0.0 mm 844.0 W/m2 CLR
15:39 36.6 °C 18.2 °C 1008.4 hPa East 16.7 km/h 16.7 km/h 34 % 0.0 mm 821.0 W/m2 CLR
15:44 36.6 °C 17.7 °C 1008.4 hPa ESE 16.1 km/h 16.1 km/h 33 % 0.0 mm 830.0 W/m2 CLR
15:49 36.9 °C 18.0 °C 1008.4 hPa ESE 14.8 km/h 14.8 km/h 33 % 0.0 mm 823.0 W/m2 CLR
15:54 36.9 °C 18.0 °C 1008.4 hPa SE 22.2 km/h 22.2 km/h 33 % 0.0 mm 819.0 W/m2 CLR
15:59 36.7 °C 18.7 °C 1008.4 hPa East 27.8 km/h 27.8 km/h 35 % 0.0 mm 823.0 W/m2 CLR
16:04 36.6 °C 19.1 °C 1008.4 hPa ESE 24.1 km/h 24.1 km/h 36 % 0.0 mm 823.0 W/m2 CLR
16:09 36.4 °C 18.9 °C 1008.4 hPa ESE 20.4 km/h 20.4 km/h 36 % 0.0 mm 823.0 W/m2 CLR
16:14 36.6 °C 19.5 °C 1008.0 hPa East 25.9 km/h 25.9 km/h 37 % 0.0 mm 867.0 W/m2 CLR
16:19 36.1 °C 19.1 °C 1008.0 hPa East 25.9 km/h 25.9 km/h 37 % 0.0 mm 802.0 W/m2 CLR
16:24 36.2 °C 19.6 °C 1008.0 hPa ESE 24.1 km/h 24.1 km/h 38 % 0.0 mm 816.0 W/m2 CLR
16:29 36.1 °C 19.6 °C 1007.7 hPa East 25.9 km/h 25.9 km/h 38 % 0.0 mm 786.0 W/m2 CLR
16:34 35.7 °C 19.6 °C 1008.0 hPa SE 18.5 km/h 18.5 km/h 39 % 0.0 mm 202.0 W/m2 CLR
16:39 35.7 °C 19.6 °C 1008.0 hPa SE 31.5 km/h 31.5 km/h 39 % 0.0 mm 202.0 W/m2 CLR
16:44 35.4 °C 19.7 °C 1008.4 hPa SE 29.6 km/h 29.6 km/h 40 % 0.0 mm 241.0 W/m2 CLR
16:49 35.6 °C 19.9 °C 1008.4 hPa SE 38.9 km/h 38.9 km/h 40 % 0.0 mm 833.0 W/m2 CLR
16:54 34.0 °C 17.7 °C 1008.4 hPa SSE 31.5 km/h 31.5 km/h 38 % 0.0 mm 301.0 W/m2 CLR
16:59 33.1 °C 16.9 °C 1008.4 hPa SE 25.9 km/h 25.9 km/h 38 % 0.0 mm 758.0 W/m2 CLR
17:02 32.9 °C 15.4 °C 1008.4 hPa South 24.1 km/h 24.1 km/h 35 % 0.0 mm 728.0 W/m2 CLR
17:07 32.6 °C 15.6 °C 1008.4 hPa South 27.8 km/h 27.8 km/h 36 % 0.0 mm 714.0 W/m2 CLR
17:12 32.8 °C 15.7 °C 1008.4 hPa SSE 33.3 km/h 33.3 km/h 36 % 0.0 mm 740.0 W/m2 CLR
17:14 32.6 °C 17.3 °C 1008.4 hPa SSE 27.8 km/h 27.8 km/h 40 % 0.0 mm 712.0 W/m2 CLR
17:19 32.4 °C 17.9 °C 1008.4 hPa SSW 18.5 km/h 18.5 km/h 42 % 0.0 mm 708.0 W/m2 CLR
17:24 32.7 °C 17.7 °C 1008.4 hPa ESE 14.8 km/h 14.8 km/h 41 % 0.0 mm 679.0 W/m2 CLR
17:29 33.4 °C 17.2 °C 1008.0 hPa SE 22.5 km/h 22.5 km/h 38 % 0.0 mm 647.0 W/m2 CLR
17:34 33.9 °C 17.2 °C 1008.0 hPa SE 22.2 km/h 22.2 km/h 37 % 0.0 mm 628.0 W/m2 CLR
17:39 33.8 °C 17.9 °C 1008.0 hPa SE 22.2 km/h 22.2 km/h 39 % 0.0 mm 596.0 W/m2 CLR
17:44 33.3 °C 18.7 °C 1008.0 hPa SE 22.2 km/h 22.2 km/h 42 % 0.0 mm 563.0 W/m2 CLR
17:49 33.3 °C 19.4 °C 1008.0 hPa SSE 20.9 km/h 20.9 km/h 44 % 0.0 mm 183.0 W/m2 CLR
17:54 33.0 °C 19.1 °C 1008.0 hPa SE 18.5 km/h 18.5 km/h 44 % 0.0 mm 148.0 W/m2 CLR
17:59 33.3 °C 20.1 °C 1008.0 hPa ESE 16.7 km/h 16.7 km/h 46 % 0.0 mm 534.0 W/m2 CLR
18:04 33.4 °C 20.2 °C 1007.7 hPa ESE 22.5 km/h 22.5 km/h 46 % 0.0 mm 504.0 W/m2 CLR
18:09 33.5 °C 20.3 °C 1007.7 hPa SE 18.5 km/h 18.5 km/h 46 % 0.0 mm 485.0 W/m2 CLR
18:14 33.8 °C 19.8 °C 1007.7 hPa SE 25.9 km/h 25.9 km/h 44 % 0.0 mm 476.0 W/m2 CLR
18:19 33.8 °C 19.8 °C 1007.7 hPa SSE 24.1 km/h 24.1 km/h 44 % 0.0 mm 107.0 W/m2 CLR
18:24 33.8 °C 19.8 °C 1007.3 hPa SSE 22.2 km/h 22.2 km/h 44 % 0.0 mm 111.0 W/m2 CLR
18:29 33.7 °C 19.7 °C 1007.3 hPa SE 19.3 km/h 19.3 km/h 44 % 0.0 mm 176.0 W/m2 CLR
18:34 33.8 °C 19.4 °C 1007.3 hPa SE 18.5 km/h 18.5 km/h 43 % 0.0 mm 452.0 W/m2 CLR
18:39 33.9 °C 19.6 °C 1007.3 hPa SE 16.7 km/h 16.7 km/h 43 % 0.0 mm 169.0 W/m2 CLR
18:44 33.8 °C 19.5 °C 1007.3 hPa SE 17.7 km/h 17.7 km/h 43 % 0.0 mm 113.0 W/m2 CLR
18:49 33.8 °C 19.1 °C 1007.3 hPa SE 14.8 km/h 14.8 km/h 42 % 0.0 mm 311.0 W/m2 CLR
18:54 34.0 °C 18.9 °C 1007.3 hPa SSE 18.5 km/h 18.5 km/h 41 % 0.0 mm 420.0 W/m2 CLR
18:59 34.2 °C 18.7 °C 1007.3 hPa SSE 18.5 km/h 18.5 km/h 40 % 0.0 mm 378.0 W/m2 CLR
19:04 34.3 °C 18.7 °C 1007.3 hPa ESE 13.0 km/h 13.0 km/h 40 % 0.0 mm 343.0 W/m2 CLR
19:09 34.1 °C 18.6 °C 1007.3 hPa SSE 22.5 km/h 22.5 km/h 40 % 0.0 mm 323.0 W/m2 CLR
19:14 33.7 °C 18.2 °C 1007.3 hPa ESE 20.4 km/h 20.4 km/h 40 % 0.0 mm 302.0 W/m2 CLR
19:17 33.7 °C 18.6 °C 1007.3 hPa SE 25.9 km/h 25.9 km/h 41 % 0.0 mm 287.0 W/m2 CLR
19:22 33.4 °C 18.3 °C 1007.0 hPa SSE 27.8 km/h 27.8 km/h 41 % 0.0 mm 267.0 W/m2 CLR
19:27 33.3 °C 18.6 °C 1007.0 hPa SE 16.1 km/h 16.1 km/h 42 % 0.0 mm 262.0 W/m2 CLR
19:32 33.3 °C 18.3 °C 1007.0 hPa SSE 18.5 km/h 18.5 km/h 41 % 0.0 mm 269.0 W/m2 CLR
19:37 33.3 °C 18.3 °C 1007.0 hPa SE 16.7 km/h 16.7 km/h 41 % 0.0 mm 251.0 W/m2 CLR
19:42 33.3 °C 18.3 °C 1007.0 hPa SE 13.0 km/h 13.0 km/h 41 % 0.0 mm 234.0 W/m2 CLR
19:47 33.2 °C 18.6 °C 1007.0 hPa SSE 22.2 km/h 22.2 km/h 42 % 0.0 mm 113.0 W/m2 CLR
19:52 32.8 °C 18.6 °C 1007.0 hPa SSE 22.2 km/h 22.2 km/h 43 % 0.0 mm 90.0 W/m2 CLR
19:57 32.7 °C 18.5 °C 1007.0 hPa SSE 16.7 km/h 16.7 km/h 43 % 0.0 mm 90.0 W/m2 CLR
20:02 32.6 °C 18.4 °C 1007.3 hPa SSE 16.7 km/h 16.7 km/h 43 % 0.0 mm 70.0 W/m2 CLR
20:07 32.3 °C 18.5 °C 1007.0 hPa SSE 22.2 km/h 22.2 km/h 44 % 0.0 mm 49.0 W/m2 FEW
20:12 32.0 °C 18.6 °C 1007.0 hPa SE 24.1 km/h 24.1 km/h 45 % 0.0 mm 42.0 W/m2 SCT
20:17 31.7 °C 18.3 °C 1007.0 hPa SE 18.5 km/h 18.5 km/h 45 % 0.0 mm 46.0 W/m2 SCT
20:22 31.6 °C 18.2 °C 1007.0 hPa SSE 24.1 km/h 24.1 km/h 45 % 0.0 mm 37.0 W/m2 BKN
20:27 31.5 °C 18.1 °C 1007.0 hPa SE 14.8 km/h 14.8 km/h 45 % 0.0 mm 35.0 W/m2 BKN
20:32 31.4 °C 18.1 °C 1007.0 hPa SSE 20.4 km/h 20.4 km/h 45 % 0.0 mm 33.0 W/m2 BKN
20:37 31.2 °C 18.2 °C 1007.3 hPa SSE 18.5 km/h 18.5 km/h 46 % 0.0 mm 33.0 W/m2 BKN
20:42 31.1 °C 18.1 °C 1007.3 hPa SSE 14.8 km/h 14.8 km/h 46 % 0.0 mm 30.0 W/m2 BKN
20:47 30.9 °C 18.3 °C 1007.3 hPa SSE 11.1 km/h 11.1 km/h 47 % 0.0 mm 21.0 W/m2 BKN
20:52 30.8 °C 18.2 °C 1007.3 hPa Calm     47 % 0.0 mm 18.0 W/m2 BKN
20:57 30.7 °C 18.1 °C 1007.3 hPa Calm     47 % 0.0 mm 12.0 W/m2 BKN
21:02 30.6 °C 18.3 °C 1007.3 hPa Calm     48 % 0.0 mm 9.0 W/m2 BKN
21:07 30.5 °C 18.2 °C 1007.3 hPa East 1.9 km/h 1.9 km/h 48 % 0.0 mm 5.0 W/m2 OVC
21:12 30.3 °C 18.4 °C 1007.3 hPa ESE 13.0 km/h 13.0 km/h 49 % 0.0 mm 0.0 W/m2 OVC
21:17 30.1 °C 18.2 °C 1007.3 hPa ESE 9.3 km/h 9.3 km/h 49 % 0.0 mm 0.0 W/m2 OVC
21:22 30.0 °C 18.1 °C 1007.3 hPa Calm     49 % 0.0 mm 0.0 W/m2 OVC
21:27 30.0 °C 17.8 °C 1007.3 hPa SSE 4.8 km/h 4.8 km/h 48 % 0.0 mm 0.0 W/m2 CLR
21:32 30.2 °C 17.6 °C 1007.3 hPa SSE 16.1 km/h 16.1 km/h 47 % 0.0 mm 0.0 W/m2 CLR
21:37 30.2 °C 17.6 °C 1007.3 hPa SSE 13.0 km/h 13.0 km/h 47 % 0.0 mm 0.0 W/m2 CLR
21:42 30.1 °C 17.6 °C 1007.3 hPa SE 13.0 km/h 13.0 km/h 47 % 0.0 mm 0.0 W/m2 CLR
21:47 30.0 °C 17.4 °C 1007.7 hPa SSE 3.7 km/h   47 % 0.0 mm 0.0 W/m2 CLR
21:52 29.9 °C 17.7 °C 1007.7 hPa Calm     48 % 0.0 mm 0.0 W/m2 CLR
21:57 29.8 °C 17.9 °C 1007.7 hPa Calm     49 % 0.0 mm 0.0 W/m2 CLR
22:02 29.6 °C 18.1 °C 1007.7 hPa Calm     50 % 0.0 mm 0.0 W/m2 CLR
22:07 29.4 °C 17.9 °C 1007.7 hPa Calm     50 % 0.0 mm 0.0 W/m2 CLR
22:12 29.2 °C 18.3 °C 1007.7 hPa Calm     52 % 0.0 mm 0.0 W/m2 CLR
22:17 28.9 °C 18.7 °C 1008.0 hPa Calm     54 % 0.0 mm 0.0 W/m2 CLR
22:22 28.7 °C 18.7 °C 1008.0 hPa Calm     55 % 0.0 mm 0.0 W/m2 CLR
22:27 28.3 °C 19.0 °C 1008.0 hPa Calm     57 % 0.0 mm 0.0 W/m2 CLR
22:32 28.0 °C 19.2 °C 1008.0 hPa Calm     59 % 0.0 mm 0.0 W/m2 CLR
22:37 27.8 °C 19.1 °C 1008.0 hPa Calm     59 % 0.0 mm 0.0 W/m2 CLR
22:42 27.7 °C 19.2 °C 1008.0 hPa Calm     60 % 0.0 mm 0.0 W/m2 CLR
22:47 27.6 °C 19.3 °C 1008.0 hPa Calm     61 % 0.0 mm 0.0 W/m2 CLR
22:52 27.4 °C 19.2 °C 1008.0 hPa Calm     61 % 0.0 mm 0.0 W/m2 CLR
22:57 27.2 °C 19.1 °C 1008.0 hPa Calm     61 % 0.0 mm 0.0 W/m2 CLR
23:03 27.1 °C 19.2 °C 1008.0 hPa ESE 5.6 km/h 5.6 km/h 62 % 0.0 mm 0.0 W/m2 CLR
23:07 26.9 °C 19.0 °C 1008.0 hPa Calm     62 % 0.0 mm 0.0 W/m2 CLR
23:12 26.8 °C 18.9 °C 1008.0 hPa Calm     62 % 0.0 mm 0.0 W/m2 CLR
23:17 26.7 °C 18.8 °C 1008.0 hPa Calm     62 % 0.0 mm 0.0 W/m2 CLR
23:22 26.6 °C 19.2 °C 1008.0 hPa Calm     64 % 0.0 mm 0.0 W/m2 CLR
23:28 26.3 °C 19.2 °C 1008.4 hPa East 3.2 km/h 3.2 km/h 65 % 0.0 mm 0.0 W/m2 CLR
23:33 26.3 °C 19.4 °C 1008.0 hPa East 1.9 km/h   66 % 0.0 mm 0.0 W/m2 CLR
23:38 26.3 °C 19.4 °C 1008.0 hPa Calm     66 % 0.0 mm 0.0 W/m2 CLR
23:43 26.2 °C 19.1 °C 1008.0 hPa Calm     65 % 0.0 mm 0.0 W/m2 CLR
23:48 26.2 °C 18.9 °C 1008.0 hPa Calm     64 % 0.0 mm 0.0 W/m2 CLR
23:53 26.2 °C 18.6 °C 1008.4 hPa Calm     63 % 0.0 mm 0.0 W/m2 CLR
23:58 26.2 °C 18.9 °C 1008.0 hPa Calm     64 % 0.0 mm 0.0 W/m2 CLR
Lo Temps de Massalio
Compliments of Weather Underground - 1.25 mb